Location: ????????
(55.5667°N, 37.5833°E)
Time: 11:52:11
(UTC+00:00)

Meteor 2-3 Rocket - Pass Details

Date: 14 April 2026
Orbit: 845 x 880 km, 81.2° (Epoch: 10 May)

Event Time Altitude Azimuth Distance (km) Brightness Sun altitude
Rises 21:29:52 0° 342° (NNW) 3,436 8.1 -24.8°
Reaches altitude 10° 21:32:23 10° 337° (NNW) 2,492 7.0 -24.8°
Maximum altitude 21:37:45 46° 266° (W) 1,125 4.2 -24.7°
Enters shadow 21:38:27 44° 244° (WSW) 1,162 4.2 -24.7°
